User: anonymous   Login
Location: Unspecified
(0.0000°N, 0.0000°E)
Time: 05:42:41
(UTC+00:00)
Language:

STARLINK-32096 - Orbit

View from above orbital plane
View from above orbital plane
View from above satellite
View from above satellite

Ground track
Ground track

The orbit is defined by the following mean orbital elements,

1 59698U          26145.26454012 +.00000000 +00000-0 +18191-4 0 00006
2 59698  43.0038 347.4083 0001340 277.8232  82.2468 15.27582444    07
Epoch (UTC): 25 May 2026 06:20:56
Eccentricity: 0.0001340
inclination: 43.0038°
perigee height: 482 km
apogee height: 484 km
right ascension of ascending node: 347.4083°
argument of perigee: 277.8232°
revolutions per day: 15.27582444
mean anomaly at epoch: 82.2468°

The dashed part of the orbit path shows where the satellite is in the earth's shadow,  

DLR